Miscellaneous Local Product
Issued by NWS North Platte, NE

Home | Current Version | Previous Version | Graphics & Text | Print | Product List | Glossary On
Versions: 1 2 3 4 5 6 7 8 9 10 11 12 13 14 15 16 17 18 19 20 21 22 23 24 25 26 27 28 29 30 31 32 33 34 35 36 37 38 39 40 41 42 43 44 45 46 47 48 49 50
000
AXUS43 KLBF 220210
MISLBF


WESTERN AND NORTH CENTRAL NEBRASKA HOURLY WEATHER ROUNDUP
NATIONAL WEATHER SERVICE NORTH PLATTE NE
800 PM CST SUN JAN 21 2018

NOTE: "FAIR" INDICATES FEW OR NO CLOUDS BELOW 12,000 FEET WITH NO
SIGNIFICANT WEATHER AND/OR OBSTRUCTIONS TO VISIBILITY.

NOTE: STATIONS NOT REPORTING VARIABLES SUCH AS SKY/WEATHER OR
PRESSURE ARE PROVIDED BY RAWS AND APRS NETWORKS AND ARE NOT UNDER
NATIONAL WEATHER SERVICE QUALITY CONTROL.

...OBSERVATIONS IN AND NEAR THE EASTERN PANHANDLE OF NEBRASKA...

CITY           SKY/WX    TMP DP  RH WIND       PRES   REMARKS
PINE RIDGE     CLOUDY    27  26  96 NW9       29.98F WCI  18
GORDON         CLOUDY    28  25  89 NW16G22   29.94F WCI  15
CHADRON        LGT SNOW  28  26  92 NW10      30.01S FOG     WCI  19
ALLIANCE       CLOUDY    25  24  96 N22       29.91S FOG     WCI  10
SIDNEY         LGT SNOW  25  23  92 N25G38    29.89R FOG     WCI   9
CRESCENT LAKE    N/A     25  24  95 N23G33      N/A  WCI  10
$$

...OBSERVATIONS IN NORTHERN NEBRASKA AND FAR SOUTHERN SOUTH DAKOTA...

CITY           SKY/WX    TMP DP  RH WIND       PRES   REMARKS
WINNER         LGT SNOW  32  29  88 N17       29.95S FOG     WCI  21
VALENTINE      LGT SNOW  31  28  89 N22G31    29.91S FOG     WCI  18
AINSWORTH      LGT SNOW  30  30 100 N16G25    29.88S VSB 1   WCI  19
O`NEILL        LGT SNOW  33  33 100 N28G33    29.83F WCI  19
THEDFORD       CLOUDY    31  29  95 N17G25    29.84S WCI  19
BROKEN BOW     LGT SNOW  32  29  88 N26G41    29.71F FOG     WCI  18
ORD            LGT SNOW  33  31  92 N22G35    29.73F FOG     WCI  21
ALBION         LGT SNOW  34  32  92 NE22G30   29.72F WCI  22
VALENTINE NWR    N/A     28  27  97 N13G23      N/A  WCI  17
HALSEY           N/A     29  29  99 N9G20       N/A  WCI  21
BUTTE            N/A     30  29  95 N16G23      N/A  WCI  19
CHAMBERS         N/A     33  32  98 N6G15       N/A  WCI  27
EWING            N/A     33  30  90 NE10        N/A  WCI  25
$$

...OBSERVATIONS IN SOUTHWEST NEBRASKA AND FAR NORTHEAST COLORADO...

CITY           SKY/WX    TMP DP  RH WIND       PRES   REMARKS
WRAY           CLOUDY    30  30 100 MISG      29.81S
HOLYOKE        CLOUDY    30  28  93 N28G38    29.83F WCI  16
IMPERIAL       FOG       28  28 100 N30G40    29.77S VSB 1   WCI  12
OGALLALA       CLOUDY    30  28  93 N25       29.84S WCI  16
NORTH PLATTE   FOG       31  28  89 N21       29.76F VSB 1/2 WCI  18
MCCOOK         LGT SNOW  31  31 100 N24G35    29.68F VSB 1   WCI  17
LEXINGTON      LGT SNOW  33  31  93 NE16      29.69S WCI  22
STAPLETON        N/A     28  27  96 N8G15       N/A  WCI  20
GOTHENBURG       N/A     32  28  84 N14         N/A  WCI  22
CALLAWAY         N/A     30  29  96 N22         N/A  WCI  17
$$

...OBSERVATIONS IN CENTRAL LINCOLN COUNTY AREA...

CITY           SKY/WX    TMP DP  RH WIND       PRES   REMARKS
N.P. AIRPORT   FOG       31  28  89 N21       29.76F VSB 1/2 WCI  18
N.P. DOWNTOWN    N/A     29  28  97 N8G18       N/A  WCI  21
N.P. SOUTHEAST   N/A     29  28  95 N12G29      N/A  WCI  19
N.P. HILLCREST   N/A     30  29  96 N23G33      N/A  WCI  17
$$

...SOME OBSERVATIONS FROM AROUND THE REGION...

CITY           SKY/WX    TMP DP  RH WIND       PRES   REMARKS
DENVER         CLOUDY    24  17  74 N22G29    29.94R WCI   9
BERTHOUD PASS  CLOUDY    -2 -13  60 MISG      29.72R
GRAND JUNCTION MOCLDY    24  17  74 N7        30.14R WCI  16
LARAMIE        LGT SNOW  15  13  91 NW22      29.94R FOG     WCI  -3
CHEYENNE       LGT SNOW  19  17  92 N18G28    29.92S FOG     WCI   4
CASPER         MOCLDY    12   8  84 SW13      30.05S WCI  -3
BISMARCK       MOCLDY    20  17  88 NE3       30.06R
RAPID CITY     CLOUDY    31  24  75 N13       30.01R WCI  21
PIERRE         CLOUDY    30  27  88 N10       30.01S WCI  21
SIOUX FALLS    CLOUDY    35  29  78 NE20      29.89S WCI  24
OMAHA          CLOUDY    37  36  96 N14       29.69F FOG     WCI  28
GRAND ISLAND   CLOUDY    33  33 100 NE25      29.67F WCI  20
SCOTTSBLUFF    CLOUDY    27  24  89 NW20      29.96F WCI  13
KANSAS CITY    CLOUDY    55  49  80 SE12      29.61F
HILL CITY      CLOUDY    34  33  96 N10       29.62F WCI  26
WICHITA        MOCLDY    49  34  56 NW12      29.58S
DODGE CITY     PTCLDY    33  29  85 W12       29.60F WCI  24
OKLAHOMA CITY  CLOUDY    59  10  14 W17G28    29.69R
DALLAS         PTCLDY    67  63  87 S15       29.74R
AMARILLO       MOCLDY    37  23  56 NW17G24   29.84R WCI  27
$$




USA.gov is the U.S. government's official web portal to all federal, state and local government web resources and services.